Regional Weather Roundup
Issued by NWS

Home | Current Version | Previous Version | Text Only | Print | Product List | Glossary On
Versions: 1 2 3 4 5 6 7 8 9 10 11 12 13 14 15 16 17 18 19 20 21 22 23 24 25 26 27 28 29 30 31 32 33 34 35 36 37 38 39 40 41 42 43 44 45 46 47 48 49 50
000
ASUS44 KJAN 281010
RWRMS

MISSISSIPPI HOURLY WEATHER ROUNDUP
NATIONAL WEATHER SERVICE JACKSON MS
500 AM CDT MON JUL 28 2014

NOTE: "FAIR: INDICATES FEW OR NO CLOUDS BELOW 12,000 FEET WITH NO
SIGNIFICANT WEATHER AND/OR OBSTRUCTIONS TO VISIBILITY.

MSZ001>002-007>008-010>013-018>021-025>028-034>036-281100-
NORTHWEST MISSISSIPPI

CITY           SKY/WX    TMP DP  RH WIND       PRES   REMARKS
CLARKSDALE     FAIR      75  73  94 CALM      30.01R
CLEVELAND      FAIR      78  76  95 N7        29.98R
GREENWOOD      PTCLDY    77  75  93 CALM      29.97R
GREENVILLE     PTCLDY    79  75  87 NW6       29.98S
GRENADA        FAIR      77  73  88 CALM      29.98R
OLIVE BRANCH   CLEAR     73  66  78 N8        30.02R
OXFORD         FAIR      77  72  83 N5        30.00R
TUNICA         SUNNY     72  66  83 N10       30.01R
$$

MSZ003>006-009-014>017-022>024-029>033-037>039-281100-
NORTHEAST MISSISSIPPI

CITY           SKY/WX    TMP DP  RH WIND       PRES   REMARKS
BELMONT        PTSUNNY   77  75  93 NW3       29.97R
COLUMBUS AFB   MOCLDY    79  74  85 W6        29.96R
CORINTH        FAIR      75  64  69 N8        29.98R
GOLDN TRIANGLE MOCLDY    79  73  83 W7        29.97R THUNDER
STARKVILLE     CLOUDY    79  73  83 CALM      29.96S
TUPELO         PTCLDY    80  74  81 N7        29.96R
$$

MSZ040-058-281100-
CENTRAL MISSISSIPPI

CITY           SKY/WX    TMP DP  RH WIND       PRES   REMARKS
JACKSON INTL   CLEAR     78  75  90 SW6       30.01R
JACKSON HAWKNS CLEAR     79  74  84 W8        30.02R
MERIDIAN KEY   CLEAR     75  72  90 S5        30.00R
MERIDIAN NAS   CLEAR     77  73  87 SW5       29.99R
RAYMOND        FAIR      77  72  83 CALM      30.02S
VICKSBURG      CLEAR     77  75  93 SW3       30.01R
$$

MSZ059>079-281100-
SOUTH MISSISSIPPI

CITY           SKY/WX    TMP DP  RH WIND       PRES   REMARKS
BROOKHAVEN     FAIR      77  75  94 SW6       30.06R
COLUMBIA       FAIR      77  75  94 W6        30.03R
HATTIESBURG    CLEAR     79  75  87 W7        30.04R
MCCOMB         CLEAR     77  74  90 W6        30.06R
NATCHEZ        CLEAR     77  73  88 SW5       30.05R
PINE BELT      CLEAR     77  73  88 W5        30.04S
$$

MSZ080>082-281100-
COASTAL MISSISSIPPI

CITY           SKY/WX    TMP DP  RH WIND       PRES   REMARKS
BILOXI         CLEAR     81  78  89 VRB1      30.03R
PASCAGOULA     CLEAR     79  77  94 W5        30.03R
GULFPORT       CLEAR     83  77  82 NW6       30.02R HX  92
$$


USA.gov is the U.S. government's official web portal to all federal, state and local government web resources and services.